Location: Corte Bragagnani
(45.3000°N, 11.1000°E)
Time: 23:06:14
(UTC+00:00)

STARLINK-1237 - Pass Details

Date: 09 April 2020
Orbit: 549 x 550 km, 53.0° (Epoch: 24 May)

Event Time Altitude Azimuth Distance (km) Brightness Sun altitude
Rises 20:30:08 0° 301° (WNW) 2,724 8.5 -24.9°
Reaches altitude 10° 20:32:23 10° 298° (WNW) 1,828 7.2 -25.2°
Enters shadow 20:35:38 50° 273° (W) 708 4.3 -25.6°
